Regional Weather Roundup
Issued by NWS Cleveland, OH

Home | Current Version | Previous Version | Graphics & Text | Print | Product List | Glossary On
Versions: 1 2 3 4 5 6 7 8 9 10 11 12 13 14 15 16 17 18 19 20 21 22 23 24 25 26 27 28 29 30 31 32 33 34 35 36 37 38 39 40 41 42 43 44 45 46 47 48 49 50
000
ASUS41 KCLE 291910
RWRCLE
OHIO REGIONAL WEATHER ROUNDUP
NATIONAL WEATHER SERVICE CLEVELAND, OH
300 PM EDT MON JUN 29 2015

NOTE: "FAIR" INDICATES FEW OR NO CLOUDS BELOW 12,000 FEET WITH NO
SIGNIFICANT WEATHER AND/OR OBSTRUCTIONS TO VISIBILITY.

OHZ001>008-015>018-024>027-034-035-043-044-292000-
   NORTHWEST OHIO

CITY           SKY/WX    TMP DP  RH WIND       PRES   REMARKS
DEFIANCE       CLOUDY    63  58  83 E9        29.87F HAZE
FINDLAY        LGT RAIN  65  58  78 SE14G28   29.86S
TOLEDO EXPRESS CLOUDY    66  56  70 SE9       29.88F
TOLEDO EXEC    CLOUDY    67  58  72 SE10      29.89F
LIMA           LGT RAIN  62  60  93 SE14      29.85F FOG
$$

OHZ009>014-019>023-028>033-038-089-292000-
   NORTHEAST OHIO

CITY           SKY/WX    TMP DP  RH WIND       PRES   REMARKS
CLE-HOPKINS    LGT RAIN  67  62  84 S10       29.93F
CLE-LAKEFRONT  LGT RAIN  70  59  68 S10       29.89F
CUY CO. ARPT   CLOUDY    70  61  73 S12       29.92F
LORAIN-ELYRIA  LGT RAIN  66  61  84 S8        29.91F
ASHTABULA      CLOUDY    72  58  61 SW8       29.93F
AKRON-CANTON   LGT RAIN  66  57  72 CALM      29.92F
WOOSTER        CLOUDY    66  59  78 SE6       29.92F
MANSFIELD      CLOUDY    64  60  87 SE10      29.90F
YOUNGSTOWN     LGT RAIN  69  59  70 SW5       29.94F
$$

OHZ042-051>053-060>062-070>072-077>081-292000-
  SOUTHWEST OHIO

CITY           SKY/WX    TMP DP  RH WIND       PRES   REMARKS
CINC-COVINGTON MOSUNNY   77  68  73 W7        29.81F
CINC-LUNKEN    PTSUNNY   75  69  81 SW6       29.80F
HAMILTON       PTSUNNY   73  67  81 CALM      29.81F
DAYTON         CLOUDY    65  63  93 S7        29.83F FOG
WRIGHT-PAT AFB CLOUDY    65  63  94 SE6       29.82F
DAYTON GENERAL HVY RAIN  64  63  96 S6        29.82F FOG
WILMINGTON     CLOUDY    66  61  84 S9        29.83F
$$

OHZ036-037-039>041-045>050-054>059-063>069-073>076-082>088-292000-
  CENTRAL AND SOUTHEAST OHIO

CITY           SKY/WX    TMP DP  RH WIND       PRES   REMARKS
COLUMBUS       CLOUDY    63  61  93 SE9       29.86F
OSU AIRPORT    CLOUDY    63  60  90 SE12      29.86F
BOLTON FIELD   RAIN      63  63 100 SE10      29.87S FOG
RICKENBACK AFB CLOUDY    63  60  90 SE12      29.86F
NEWARK         HVY RAIN  64  61  90 SE6       29.89F FOG
MARION         LGT RAIN  63  59  87 SE8       29.88F
LANCASTER      CLOUDY    65  60  84 SE8       29.87F
ZANESVILLE     NOT AVBL
NEW PHILLY     LGT RAIN  68  62  81 S3        29.92F
$$



USA.gov is the U.S. government's official web portal to all federal, state and local government web resources and services.